Preview of NWS' New Version of Forecast
This preview is not operational and should not be used for support decisions.
Latest weather observations around

Bremerton, Bremerton National Airport (KPWT)

Using English Units (Switch to International System of Units)
Date/ Time (PDT) Wind (mph) Vis. (mi) Weather Sky Cond. Temp (°F) Rel. Humidity Wind Chill (°F) Heat Index (°F) Pressure Precip. (in)
Air Dwpt 6 hour Altimeter (inHg) Sea level (inHg) 1 hr 3 hr 6 hr
Max Min
Oct 16 00:56 NE 8 10 Clear CLR 54 40     59%     30.31        
Oct 15 23:56 NE 6 10 Clear CLR 51 40     65%     30.31        
Oct 15 21:56 NE 5 10 Clear CLR 50 37     61%     30.31        
Oct 15 20:56 NE 3 10 Clear CLR 53 38     56%     30.31        
Oct 15 18:56 NE 7 10 Clear CLR 55 40     57%     30.3        
Oct 15 17:56 NNE 7 10 Clear CLR 60 41     49%     30.3        
Oct 15 16:56 NE 8 10 Clear CLR 64 40     41%     30.3 30.35      
Oct 15 15:56 NE 8 10 Clear CLR 65 41     42%     30.32 30.37      
Oct 15 14:56 ENE 9 10 Clear CLR 65 40     40%     30.33 30.37      
Oct 15 13:56 NE 8 10 Clear CLR 64 40     41%     30.34 30.38      
Oct 15 12:56 NE 10 10 Clear CLR 62 40     44%     30.35 30.4      
Oct 15 11:56 NE 10 10 Clear CLR 60 42     51%     30.36        
Oct 15 09:56 NE 10 10 Clear CLR 52 42     69%     30.37        
Oct 15 08:56 ENE 10 10 Clear CLR 49 40     71% 45   30.36        
Oct 15 06:56   10 Clear CLR 48 36     63%     30.34 30.4      
Oct 15 05:56   10 Clear CLR 49 36     61%     30.34 30.39      
Oct 15 03:56 NE 6 10 Clear CLR 49 35     59% 46   30.35 30.4      
Oct 15 02:56 NE 10 10 Clear CLR 51 35     54%     30.35 30.4      
Oct 15 00:56   10 Clear CLR 52 33     48%     30.34 30.4      
Oct 14 23:56   10 Clear CLR 53 32     45%     30.35 30.4      
Oct 14 21:56 NE 9 10 Clear   52 35     52%     30.35        
Oct 14 20:56 NE 8 10 Clear CLR 53 34     48%     30.35        
Oct 14 19:56 NNE 8 10 Clear CLR 53 36     52%     30.35        
Oct 14 18:56 NE 8 10 Clear CLR 55 34     45%     30.35        
Oct 14 17:56 NNE 6 10 Clear CLR 61 33     35%     30.35        
Oct 14 15:56 NE 8 10 Clear CLR 66 26     22%     30.36        
Oct 14 14:56 ENE 7 9 Clear CLR 66 32     28%     30.37 30.42      
Oct 14 12:56 NE 9 10 Clear CLR 63 34     34%     30.39 30.44      
Oct 14 11:56 NE 9 10 Clear CLR 60 37     42%     30.4 30.45      
Oct 14 10:56 NE 8 10 Clear CLR 58 38     47%     30.4        
Oct 14 09:56 NE 11 10 Clear CLR 55 37     51%     30.4        
Oct 14 08:56 NE 10 10 Clear CLR 51 37     59%     30.39        
Oct 14 07:56 NE 10 10 Clear CLR 47 38     71% 42   30.38 30.43      
Oct 14 06:56   10 Clear CLR 47 39     74%     30.37 30.42      
Oct 14 05:56   10 Clear CLR 47 37     68%     30.36        
Oct 14 04:56 ENE 9 10 Clear CLR 48 36     63% 44   30.34 30.4      
Oct 14 03:56 NE 8 10 Clear CLR 48 36     63% 44   30.33 30.39      
Oct 14 02:56 NE 9 10 Clear CLR 49 37     63% 45   30.33 30.38      
Oct 14 01:56   10 Clear CLR 51 34     52%     30.32 30.37      
Oct 14 00:56 ENE 11 10 Clear CLR 51 33     50%     30.31 30.36      
Oct 13 23:56 ENE 10 10 Clear CLR 52 33     48%     30.29 30.34      
Oct 13 22:56 ENE 11 10 Clear CLR 54 32     43%     30.28 30.33      
Oct 13 21:56 ENE 10 10 Clear CLR 55 32     41%     30.27 30.33      
Oct 13 20:56 NNE 11 10 Clear CLR 57 31     37%     30.26 30.32      
Oct 13 19:56 NNE 13 10 Clear CLR 58 30     34%     30.26 30.31      
Oct 13 18:56 NNE 9 10 Clear CLR 58 31     36%     30.25 30.31      
Oct 13 17:56 NE 13 10 Clear CLR 59 33     37%     30.24 30.3      
Oct 13 16:56 NNE 9 10 Clear CLR 62 33     34%     30.25 30.3      
Oct 13 15:56   10 Clear CLR 62 34     35%     30.25 30.3      
Oct 13 14:56 NE 17 10 Clear CLR 64 34     33%     30.26 30.31      
Oct 13 13:56 NNE 15 10 Clear CLR 64 33     31%     30.26 30.32      
Oct 13 12:56 NE 15 10 Clear CLR 63 36     37%     30.26 30.32      
Oct 13 11:56 NNE 10 10 Clear CLR 62 38     41%     30.27 30.33      
Oct 13 10:56 ENE 8 10 Clear CLR 59 41     51%     30.28 30.34      
Oct 13 09:56 3 10 Clear CLR 53 45     74%     30.28 30.33      
Oct 13 08:56 SW 6 10 Clear CLR 46 44     93% 43   30.27 30.33      
Oct 13 07:56 ESE 3 10 Clear CLR 48 41     77% 47   30.24 30.29      
Oct 13 06:56 ENE 8 10 Clear CLR 48 43     83% 44   30.22 30.27      
Oct 13 05:56 ENE 9 10 Clear CLR 47 44     90% 43   30.2 30.25      
Oct 13 02:56 Calm 10 Clear CLR 40 40     100%     30.18 30.24      
Oct 13 02:42 Calm 10 Clear CLR 41 39     93%     30.17        
Oct 13 02:33 Calm 2.5 Fog/Mist CLR 41 39     93%     30.17        
Oct 13 01:56 Calm 10 Clear CLR 43 42     97%     30.17 30.23      
Oct 12 21:56 ENE 7 10 Clear CLR 50 46     86%     30.12 30.18      
Oct 12 20:56 NE 9 10 Clear CLR 51 46     83%     30.1 30.16      
Oct 12 14:56 ENE 7 10 Clear CLR 61 47     60%     30.1 30.15      
Oct 12 10:08 Calm 10 Partly Cloudy SCT001 50 48     94%     30.14        
Oct 12 09:59 Calm 7 Mostly Cloudy BKN001 48 48     100%     30.14        
Oct 12 09:51 Calm 2.5 Fog/Mist OVC001 48 47     96%     30.14        
Oct 12 09:50 Calm 2 Fog/Mist OVC001 48 46     93%     30.14        
Oct 12 09:38 Calm 0.5 Fog OVC001 46 45     93%     30.14        
Oct 12 08:56 Calm 0.25 Fog OVC001 43 43     100%     30.14   0    
Oct 12 05:56 Calm 10 Clear CLR 38 37     97%     30.13        
Oct 12 03:56 Calm 10 Clear CLR 40 39     97%     30.14        
Oct 11 22:56 Calm 10 Clear CLR 43 42     97%     30.12        
Oct 11 19:56 Calm 10 Clear CLR 48 45     89%     30.11        
Oct 11 18:56 Calm 10 Clear CLR 51 46     83%     30.11        
Oct 11 14:56 Calm 10 Clear CLR 62 47     58%     30.12        
Oct 11 09:56 Calm 10 Mostly Cloudy BKN009 48 46     93%     30.15        
Oct 11 09:46 Calm 9 Mostly Cloudy BKN009 46 46     100%     30.15        
Oct 11 09:17 SSW 3 1.5 Fog/Mist SCT009 45 45     100% 43   30.15        
Oct 11 09:07 SSW 3 9 Partly Cloudy SCT007 45 43     93% 43   30.15        
Oct 11 08:22 Calm 9 Cloudy OVC007 46 46     100%     30.14        
Oct 11 03:05 Calm 1.25 Fog/Mist CLR 39 39     100%     30.09        
Oct 10 23:56 ENE 5 10 Clear CLR 49 44     83% 47   30.07        
Oct 10 15:56 ENE 6 10 Clear CLR 61 48     62%     30.01        
Notice The following observation data may not be complete
Oct 10 07:07 Calm 2.5 Fog/Mist FEW090   39      %     30.03        
Oct 10 04:31 Calm 0.75 Fog/Mist CLR 43 43     100%     30.03        
Oct 10 04:28 Calm 1.5 Fog/Mist CLR 43 43     100%     30.03        
Oct 10 03:27 Calm 3 Fog/Mist CLR 43 43     100%     30.03        
Oct 10 03:24 Calm 1.5 Fog/Mist FEW080 43 43     100%     30.03        
Oct 09 22:14 Calm 1.75 Fog/Mist CLR 45 43     93%     30.03        
Oct 09 20:37 Calm 1.5 Fog/Mist CLR 45 43     93%     30.01        
Oct 09 15:56 E 8 10 Clear CLR 60 47     62%     29.97 30.02      
Oct 09 14:56 NE 9 10 Clear CLR 61 48     62%     29.96 30.01      
Oct 09 12:56 ENE 7 10 Cloudy SCT029 BKN035 OVC042 58 50     75%     29.97        
Oct 09 11:56 SSE 5 10 Cloudy FEW018 BKN025 OVC030 56 52     87%     29.96 30.01      
Oct 09 11:11 Calm 10 Mostly Cloudy FEW008 BKN027 57 52     82%     29.95        
Notice The following observation data may not be complete
Oct 09 06:02   10 Light Rain SCT005 OVC010          %         0    
Oct 09 05:56 NE 3 10 Light Rain BKN005 OVC010 52 52     100%     29.84   0    
Oct 09 04:31 ENE 3 7 Cloudy OVC005 52 52     100%     29.82        
Oct 09 04:15 E 3 3 Fog/Mist SCT002 BKN007 OVC013 52 52     100%     29.82        
Oct 09 04:13 E 3 2 Fog/Mist BKN002 BKN007 OVC013 52 52     100%     29.82        
Oct 09 04:10 E 3 1 Fog/Mist BKN002 BKN007 OVC013 52 52     100%     29.82        
Oct 09 03:56 Calm 0.5 Fog OVC002 51 51     100%     29.82        
Oct 09 03:06 SW 5 1.5 Fog/Mist FEW002 SCT021 48 48     100% 46   29.81        
Oct 09 02:56 E 3 6 Fog/Mist SCT002 52 51     97%     29.81 29.86 0    
Oct 09 02:45 Calm 6 Fog/Mist BKN002 52 52     100%     29.82   0    
Oct 09 02:09 Calm 6 Fog/Mist BKN004 BKN049 52 50     94%     29.82        
Oct 09 01:56 Calm 8 Mostly Cloudy FEW004 BKN049 51 51     100%         0 0  
Notice The following observation data may not be complete
Oct 09 00:24   3 Light Rain and Fog/Mist BKN004 OVC007          %         0    
Oct 08 23:28 Calm 2.5 Light Rain and Fog/Mist OVC004 54 52     94%     29.84   0    
Oct 08 22:19 Calm 5 Fog/Mist BKN004 BKN019 OVC035 52 52     100%     29.87   0    
Oct 08 22:11 Calm 6 Fog/Mist BKN002 BKN019 OVC035 52 52     100%     29.88        
Oct 08 21:56 SE 3 3 Fog/Mist FEW002 OVC035 52 52     100%     29.88        
Oct 08 21:28 Calm 8 Cloudy FEW002 BKN035 OVC060 52 52     100%     29.9        
Oct 08 21:23 Calm 2.5 Fog/Mist BKN035 OVC060 52 52     100%     29.9        
Oct 08 17:56 Calm 10 Cloudy OVC010 54 52     93%     29.93   0    
Oct 08 16:20 WSW 5 10 Cloudy BKN006 OVC011 54 54     100%     29.95        
Oct 08 14:56 Calm 10 Cloudy BKN007 OVC012 55 52     89%     29.96   0    
Oct 08 12:23 Calm 10 Cloudy SCT009 OVC015 54 52     94%     29.99        
Oct 08 10:56 Calm 5 Fog/Mist OVC006 53 51     93%     30.01   0   0
Oct 08 08:56 Calm 3 Fog/Mist OVC002 51 51     100%     30.02   0    
Oct 08 08:51 Calm 3 Clear   52 52     100%     30.02   0    
Oct 08 07:56 Calm 1.5 Fog/Mist BKN004 OVC008 51 50     96%     30.03   0 0  
Oct 08 04:56 Calm 2 Light Rain and Fog/Mist OVC002 51 50     96%     30.03   0   0
Notice The following observation data may not be complete
Oct 08 02:56 SSW 6 10 Light Rain OVC004          %     30.05   0    
Oct 07 21:56 SSW 7 10 Light Rain OVC004 51 50     96%     30.1   0    
Oct 07 20:56 S 6 9 Light Rain OVC004 51 50     96%     30.1   0    
Oct 07 18:56 SSW 3 10 Cloudy OVC006 51 49     92%     30.11        
Oct 07 15:29 SSW 9 10 Light Rain BKN008 BKN013 BKN035 52 50     94%     30.16   0    
Oct 07 14:56 SSW 6 10 Light Rain OVC010 52 50     93%     30.16   0    
Oct 07 12:56 SSW 7 10 Light Rain BKN006 OVC009 52 50     93%     30.19   0    
Oct 07 08:56 SSW 5 5 Light Rain and Fog/Mist OVC003 47 47     100% 45   30.2   0    
Oct 07 07:07 Calm 6 Fog/Mist OVC003 46 46     100%     30.2        
Oct 07 05:29 S 3 2.5 Fog/Mist OVC003 46 46     100% 45   30.19        
Oct 07 04:17 Calm 3 Fog/Mist OVC003 48 46     93%     30.2        
Oct 07 04:03 Calm 1.5 Fog/Mist OVC003 48 46     93%     30.2        
Oct 07 02:56 Calm 0.25 Fog OVC003 48 47     96%     30.21        
Oct 07 02:41 Calm 0.25 Fog BKN003 46 46     100%     30.22        
Oct 07 02:19 Calm 8 Mostly Clear FEW003 45 45     100%     30.22        
Oct 06 22:18 Calm 4 Fog/Mist CLR 43 43     100%     30.21        
Oct 06 22:08 Calm 1.75 Fog/Mist CLR 45 43     93%     30.21        
Oct 06 19:42 Calm 10 Partly Cloudy SCT030 52 46     82%     30.22        
Oct 06 15:56 SSW 6 3 Haze OVC026 57 47     69%     30.18        
Oct 06 15:08 3 10 Mostly Cloudy SCT029 BKN035 59 46     63%     30.16        
Oct 06 13:56 SW 7 10 Cloudy FEW023 OVC029 57 47     69%     30.16        
Oct 06 13:53 SW 7 10 Cloudy BKN029 OVC037 57 46     67%     30.16        
Oct 06 13:27 SW 5 10 Partly Cloudy SCT029 57 45     63%     30.16        
Oct 06 08:56 Calm 10 Clear CLR 49 44     83%     30.11        
Oct 06 04:56   10 Clear CLR 47 44     90%     30 30.05      
Oct 06 02:56 ENE 9 10 Clear CLR 47 44     90% 43   29.97 30.03      
Oct 06 01:56 ENE 7 10 Partly Cloudy SCT060 48 45     89% 45   29.96 30.02      
Oct 05 22:13 NNE 7 10 Cloudy FEW009 OVC041 48 46     93% 45   29.92        
Oct 05 18:43 NE 8 3 Light Rain and Fog/Mist BKN004 OVC010 48 46     93% 45   29.91   0    
Oct 05 14:56 NE 7 6 Light Rain and Fog/Mist BKN006 BKN026 OVC035 48 47     96% 45   29.94   0    
Oct 05 14:45 NE 8 7 Light Rain FEW005 BKN026 OVC036 48 46     93% 45   29.94   0    
Oct 05 13:56 NNE 7 6 Light Rain and Fog/Mist BKN006 OVC030 49 47     93% 46   29.97   0 0  
Oct 05 10:56 Calm 4 Light Rain and Fog/Mist SCT004 SCT009 BKN022 47 45     93%     30.04   0   0
Oct 05 10:27 Calm 6 Light Rain and Fog/Mist FEW004 BKN029 OVC034 46 45     93%     30.04   0    
Oct 05 10:16 Calm 7 Light Rain OVC032 46 45     93%     30.05   0    
Oct 05 09:56 Calm 7 Light Rain BKN028 OVC035 46 45     96%     30.06   0    
Oct 05 05:56 Calm 10 Cloudy OVC039 44 42     93%     30.07        
Oct 05 03:56 Calm 10 Clear CLR 40 39     97%     30.08        
Oct 05 02:56 Calm 10 Clear CLR 37 37     100%     30.1        
Oct 05 01:56 Calm 10 Clear CLR 39 37     93%     30.11 30.16      
Oct 05 00:56 Calm 10 Clear CLR 39 38     96%     30.1        
Oct 04 23:56 Calm 10 Clear CLR 38 37     97%     30.11 30.16      
Oct 04 21:56 Calm 10 Clear CLR 42 40     92%     30.09 30.15      
Oct 04 20:56 Calm 10 Clear CLR 44 41     89%     30.09 30.14      
Oct 04 18:56 Calm 10 Mostly Cloudy BKN046 53 42     66%     30.07 30.12      
Oct 04 17:56 SSE 3 10 Mostly Clear FEW046 57 40     53%     30.05 30.1      
Oct 04 16:56 ESE 5 10 Mostly Cloudy BKN044 57 41     55%     30.04 30.1      
Oct 04 15:56 SE 3 10 Mostly Cloudy BKN041 58 40     51%     30.03 30.09      
Oct 04 14:56 SSW 8 10 Mostly Cloudy BKN043 59 41     51%              
Oct 04 13:56 Calm 10 Clear CLR 56 39     53%     30.02 30.08      
Oct 04 12:56 5 10 Clear CLR 58 39     49%     30.02 30.08      
Oct 04 11:56 6 10 Clear CLR 56 40     55%     30.01 30.07      
May 15 09:04 SW 8 10 Cloudy OVC007 55 52     88%     29.96        
May 14 08:56 Calm 10 Clear CLR 62 54     75%     29.97 30.01      
May 14 07:56 SSW 6 10 Clear CLR 58 54     87%     29.98        
Notice The following observation data may not be complete
May 13 20:56 Calm 10 Clear CLR   52      %     29.9        
May 13 12:56 NNE 7 10 Clear CLR 75 55     50%   75 29.95        
May 13 02:56 Calm 10 Clear CLR 47 44     90%     29.97 30.01      
May 12 17:56 ENE 9 10 Clear CLR 74 48     40%   73 29.99        
May 12 01:56 Calm 10 Clear CLR 45 45     100%     30.2        
May 12 00:56 Calm 10 Clear CLR 47 46     97%     30.2        
May 11 15:56 Calm 10 Mostly Cloudy BKN033 63 49     60%     30.23        
May 11 12:56 SSE 5 10 Cloudy BKN024 OVC028 57 49     74%     30.27 30.33      
May 11 07:56 Calm 10 Cloudy BKN019 OVC027 49 47     93%     30.27 30.32      
Jun 11 09:56 SSW 3 10 Cloudy OVC005 52 49     89%     30.06        
Jun 10 19:56 NNE 5 10 Clear CLR 62 45     53%     29.9 29.95      
Jun 10 15:56 WSW 3 10 Cloudy SCT046 OVC060 61 46     58%     29.86        
Notice The following observation data may not be complete
Jun 10 08:40   10 Cloudy OVC006          %              
Jun 10 02:15 WSW 7 10 Cloudy OVC004 48 46     93% 45   29.87        
Jun 09 16:56 SSW 8 10 Light Rain FEW026 58 46     65%     29.83 29.89 0   0
Jun 09 04:36 Calm 10 Cloudy SCT021 BKN028 OVC048 48 46     93%     29.93        
Jun 08 09:48 SSW 9 10 Light Rain BKN006 OVC030 55 54     94%     29.68   0    
Jun 08 04:56 SW 3 10 Light Rain SCT002 BKN010 OVC043 52 52     100%     29.64   0   0
Jun 07 09:56 Calm 10 Clear   67 49     52%     29.8        
Jun 06 02:56 E 5 10 Clear   54 43     66%     30.03        
Jun 05 16:56 ENE 9 10 Clear   71 39     31%   69 30.07